| parent folder | - | - |
| - | 119316.json | 5798 | 2025-04-16 13:14:42 |
| - | 119316_154165_XanderHuskypup_1295131497.deja-blu_diabolustronpic.png | 717934 | 2025-04-16 13:14:42 |
| - | 119317.json | 6196 | 2025-04-16 13:14:43 |
| - | 119317_154166_XanderHuskypup_1271472638.half.diabolous49_1271467182.shadowsani_xander_marf.png.jpg | 21015 | 2025-04-16 13:14:43 |
| - | 135398.json | 5078 | 2018-11-18 16:23:19 |
| - | 135398_174787_XanderHuskypup_japanese_temple_010.png | 2472732 | 2018-11-18 16:23:19 |
| - | 135404.json | 4704 | 2018-11-18 16:23:19 |
| - | 135404_174798_XanderHuskypup_japanese_temple_016.png | 2547266 | 2018-11-18 16:23:20 |
| - | 3194036.json | 5844 | 2023-12-10 11:47:43 |
| - | 3194036_4805784_XanderHuskypup_dream_azcnvdjmsbzcuj25ap6zkwrb_oxn6bzjwtoljuo0wlyf2_image_0.jpg | 105944 | 2023-12-10 11:47:43 |
| - | 3200334.json | 6258 | 2023-12-17 11:53:51 |
| - | 3200334_4815978_XanderHuskypup_dream_qoqkxakrrcvtewcsgfmfamg6_4telcckpu6f3knqo8abl_image_0.jpg | 106630 | 2023-12-17 11:53:52 |
| - | 3200386.json | 5880 | 2023-12-17 11:55:09 |
| - | 3200386_4816069_XanderHuskypup_dream_dm5vgdyaqkfz9bcd2bzavxtb_1usxqp0nscio3b0osdqx_image_0.jpg | 114899 | 2023-12-17 11:55:09 |
| - | 3201217.json | 5615 | 2023-12-17 12:15:10 |
| - | 3201217_4817341_XanderHuskypup_dream_ae7agev46dkn0ubcezeuaou8_w5lgg5vqfaeeyvi5pkg9_image_0.jpg | 125901 | 2023-12-17 12:15:10 |
| - | 3203548.json | 5885 | 2025-07-02 02:21:45 |
| - | 3203548_4821357_XanderHuskypup_1341476443.diabolous49_1341401694.pinkcloudysky_chibi_-_diabolous49_040712.jpg | 143266 | 2025-07-02 02:21:45 |
| - | 3203557.json | 5924 | 2025-07-02 02:21:39 |
| - | 3203557_4821374_XanderHuskypup_1337385259.diabolous49_1337357390.angelaito_diabolous49post.png | 71771 | 2025-07-02 02:21:39 |
| - | 3203564.json | 5889 | 2025-07-02 02:21:29 |
| - | 3203564_4821401_XanderHuskypup_1337558530.diabolous49_1337541485.turbinedivinity_plushes6.jpg | 394467 | 2025-07-02 02:21:29 |
| - | 3203699.json | 6365 | 2025-07-02 02:19:28 |
| - | 3203699_4821617_XanderHuskypup_1338418572.diabolous49_1338417544.claydoll_ballon_alexfin_resized.png | 861646 | 2025-07-02 02:19:28 |
| - | 3203708.json | 5672 | 2025-07-02 02:19:20 |
| - | 3203708_4821633_XanderHuskypup_1339462584.diabolous49_horse2.jpg | 186526 | 2025-07-02 02:19:20 |
| - | 3205066.json | 5488 | 2023-12-24 11:28:09 |
| - | 3205066_4825346_XanderHuskypup_b40a57e100d75101c6ae75052861c10fb8da6b5b_s2_n3_y1.jpg | 463112 | 2023-12-24 11:28:09 |
| - | 3205234.json | 5959 | 2023-12-24 11:32:20 |
| - | 3205234_4824336_XanderHuskypup_dream_cijcylkxvuwzwvxt7c6sbeen_y43kbc4q3kdewckoochy_image_0.jpg | 104707 | 2023-12-24 11:32:21 |
| - | 3209575.json | 5867 | 2023-12-27 12:03:19 |
| - | 3209575_4832050_XanderHuskypup_7c518b2673e5bb9410d1fcc6f52caf2af2bbf0ab_s2_n3_y1.jpg | 348295 | 2023-12-27 12:03:19 |
| - | 3211658.json | 5762 | 2023-12-31 11:45:12 |
| - | 3211658_4835684_XanderHuskypup_50cbbf404897a1ef3b13a03ddc3336f15c47f3a7_s2_n3_y1.jpg | 349414 | 2023-12-31 11:45:13 |
| - | 3213704.json | 6070 | 2024-01-03 11:18:46 |
| - | 3213704_4839392_XanderHuskypup_9f9619873b203acffdc9e34040a67c61c5013be6_s2_n3_y1.jpg | 392657 | 2024-01-03 11:18:46 |
| - | 3214338.json | 6642 | 2024-01-03 11:37:34 |
| - | 3214338_4840656_XanderHuskypup_238d13ac69991b0551f894f0f22d8b35245319a0_s2_n3_y1.jpg | 362089 | 2024-01-03 11:37:34 |
| - | 3214420.json | 6813 | 2024-01-03 11:39:42 |
| - | 3214420_4840800_XanderHuskypup_d1de91e2aa25023075f7816de6479351bad5c645_s2_n3_y1.jpg | 338925 | 2024-01-03 11:39:42 |
| - | 3214690.json | 6946 | 2024-01-03 11:46:24 |
| - | 3214690_4841242_XanderHuskypup_ae70394c5be0d5b14c645023e63f29b001a1781b_s2_n3_y1.jpg | 333031 | 2024-01-03 11:46:24 |
| - | 3215271.json | 6182 | 2025-07-01 22:40:44 |
| - | 3215271_4842410_XanderHuskypup_1623095880.fraya-didlidu.ych_diabolous49.jpg | 329611 | 2025-07-01 22:40:44 |
| - | 3215281.json | 5605 | 2025-07-01 22:40:34 |
| - | 3215281_4842423_XanderHuskypup_v8sr2_d5.png | 2474504 | 2025-07-01 22:40:34 |
| - | 3215320.json | 7310 | 2024-01-03 12:02:11 |
| - | 3215320_4842488_XanderHuskypup_1700100188.diabolous49_b7d248b0-ba7f-4733-9866-38f1acfc10c3_jpeg.jpg | 150203 | 2024-01-03 12:02:11 |
| - | 3215372.json | 6178 | 2025-07-01 22:38:41 |
| - | 3215372_4842597_XanderHuskypup_1258420093.diabolous49_diabolous49_try_outs.jpg | 156315 | 2025-07-01 22:38:41 |
| - | 3215416.json | 6368 | 2025-07-01 22:38:05 |
| - | 3215416_4842683_XanderHuskypup_1291518008.diabolous49_1291511113.xanthippos_commish5.png | 806051 | 2025-07-01 22:38:05 |
| - | 3215504.json | 6078 | 2025-07-01 22:36:21 |
| - | 3215504_4842814_XanderHuskypup_375de7585c2571b163456931ad60ecaecf304ad0_s2_n3_y1.jpg | 272769 | 2025-07-01 22:36:21 |
| - | 3215595.json | 5897 | 2024-01-03 12:08:56 |
| - | 3215595_4842952_XanderHuskypup_0f9a36345cf342bef29d1ddf53985f3bcb0d5a9e_s2_n3_y1.jpg | 380363 | 2024-01-03 12:08:56 |
| - | 3216292.json | 5449 | 2025-07-01 22:21:37 |
| - | 3216292_4844117_XanderHuskypup_1608676685.png | 726375 | 2025-07-01 22:21:37 |
| - | 3216327.json | 7072 | 2025-07-01 22:21:04 |
| - | 3216327_4844166_XanderHuskypup_1321469715.diabolous49_1319089234.xanthippos_diabolouscommissionfinished.png | 672110 | 2025-07-01 22:21:04 |
| - | 3218073.json | 6656 | 2025-07-01 21:47:52 |
| - | 3218073_4847086_XanderHuskypup_1332982611.diabolous49_up0z_diabolouscommission2.png | 596692 | 2025-07-01 21:47:52 |
| - | 3220322.json | 6373 | 2025-07-01 21:06:29 |
| - | 3220322_4850836_XanderHuskypup_18d382ad2515c33993c87b7429a194b7e32f46a5_s2_n3_y1.jpg | 406873 | 2025-07-01 21:06:29 |
| - | 3223443.json | 6549 | 2025-07-01 20:08:06 |
| - | 3223443_4856375_XanderHuskypup_99654a96cc5236478d8d284d4c7649912e0f510d_s2_n3_y1.jpg | 371928 | 2025-07-01 20:08:06 |
| - | 3223601.json | 6970 | 2025-07-01 20:05:15 |
| - | 3223601_4856635_XanderHuskypup_6509ceeea1953d3d8fc5a00c74ad735b8a2df913_s2_n3_y1.jpg | 304627 | 2025-07-01 20:05:15 |
| - | 3228234.json | 6566 | 2024-01-21 11:30:31 |
| - | 3228234_4864716_XanderHuskypup_2e284acc5f67b339917b14f8404b63586661fd47_s2_n3_y1.jpg | 239385 | 2024-01-21 11:30:31 |
| - | 3228584.json | 6116 | 2024-01-21 11:39:42 |
| - | 3228584_4865242_XanderHuskypup_4844466aaa23f51649163b49e818c157ce2025ca_s2_n3_y1.jpg | 357834 | 2024-01-21 11:39:42 |
| - | 3228627.json | 6666 | 2024-01-21 11:40:42 |
| - | 3228627_4865304_XanderHuskypup_4262e0bbbb71f2fd2135dbac8a72475c968a72d3_s2_n3_y1.jpg | 301810 | 2024-01-21 11:40:42 |
| - | 3230183.json | 6155 | 2024-01-21 12:22:15 |
| - | 3230183_4868028_XanderHuskypup_2f38f81427ac3bed192f95b4c3dd8c4b82e4172a_s2_n3_y1.jpg | 328224 | 2024-01-21 12:22:15 |
| - | 3230973.json | 6579 | 2024-01-24 11:14:04 |
| - | 3230973_4869334_XanderHuskypup_c0c2716d3db0b407d600a950bd1372289f89f67e_s2_n3_y1.jpg | 299158 | 2024-01-24 11:14:04 |
| - | 3232638.json | 6413 | 2024-01-24 11:58:18 |
| - | 3232638_4872162_XanderHuskypup_fa68ce7a985b906eafc167358ba7c90a74b89cde_s2_n3_y1.jpg | 289759 | 2024-01-24 11:58:19 |
| - | 3237759.json | 6358 | 2024-01-31 11:47:52 |
| - | 3237759_4880517_XanderHuskypup_ce1b9b42c1744a1911e21192be28af1347ed86cc_s2_n3_y1.jpg | 289167 | 2024-01-31 11:47:52 |
| - | 3239090.json | 6440 | 2024-02-04 11:14:47 |
| - | 3239090_4883067_XanderHuskypup_1e0470ed89ce35121082a6edb78233b6398a4c30_s2_n3_y1.jpg | 261244 | 2024-02-04 11:14:47 |
| - | 3239398.json | 6507 | 2024-02-04 11:22:38 |
| - | 3239398_4883660_XanderHuskypup_a06adff8f805ce3a84ada8bb662307da7e7168b7_s2_n3_y1.jpg | 226628 | 2024-02-04 11:22:38 |
| - | 3241651.json | 5833 | 2024-02-04 12:20:29 |
| - | 3241651_4887950_XanderHuskypup_ca864e7454cc427b07fc60c372234108c1fa67ec_s2_n3_y1.jpg | 247777 | 2024-02-04 12:20:29 |
| - | 3243251.json | 6305 | 2024-02-07 11:34:27 |
| - | 3243251_4890765_XanderHuskypup_96c37f63c09de00e576ef61e524695cf7bbc2b9c_s2_n3_y1.jpg | 289594 | 2024-02-07 11:34:27 |
| - | 3243681.json | 6355 | 2024-02-07 11:45:15 |
| - | 3243681_4891439_XanderHuskypup_942d01d41ee9299e9231f0bf78fdb3f7852b3faa_s2_n2_y1.jpg | 284381 | 2024-02-07 11:45:15 |
| - | 3246335.json | 6984 | 2024-02-11 11:46:37 |
| - | 3246335_4895904_XanderHuskypup_9ae28c06fed144c30c26f0ac27f5e6c93007ff56_s2_n3_y1.jpg | 292053 | 2024-02-11 11:46:37 |
| - | 3246885.json | 5900 | 2024-02-11 12:00:00 |
| - | 3246885_4896787_XanderHuskypup_8a6b467e99d790b2641c16e133a4d842bd5da983_s2_n3_y1.jpg | 288618 | 2024-02-11 12:00:01 |
| - | 3250038.json | 6574 | 2024-02-14 11:51:14 |
| - | 3250038_4902233_XanderHuskypup_574295f56f0da0153e1f63dcfd4105c6fa78fcc9_s2_n3_y1.jpg | 273889 | 2024-02-14 11:51:15 |
| - | 3251613.json | 7187 | 2024-02-18 11:18:21 |
| - | 3251613_4904812_XanderHuskypup_f023a7ff2ae15adb9ebdebb54f72f9dd7548c6d2_s2_n3_y1.jpg | 295956 | 2024-02-18 11:18:21 |
| - | 3251694.json | 6496 | 2024-02-18 11:20:30 |
| - | 3251694_4904917_XanderHuskypup_ec97dade92c27a6d8c52efdfcdb48960de364860_s2_n3_y1.jpg | 274380 | 2024-02-18 11:20:30 |
| - | 3252126.json | 6432 | 2024-02-18 11:31:25 |
| - | 3252126_4905611_XanderHuskypup_678ceceb0c34c17400f0d8e6205aafae4acc669e_s2_n3_y1.jpg | 251946 | 2024-02-18 11:31:26 |
| - | 3252911.json | 6127 | 2024-02-18 11:51:17 |
| - | 3252911_4907037_XanderHuskypup_e30ce60c3d81b5af4c869459bd54eff6dc0a8964_s2_n3_y1.jpg | 273223 | 2024-02-18 11:51:17 |
| - | 3256407.json | 9596 | 2024-02-21 11:54:24 |
| - | 3256407_4913649_XanderHuskypup_789045e4664179a9c80e13a4df4f6c27e78ca35c_s2_n3_y1.jpg | 242885 | 2024-02-21 11:54:24 |
| - | 3263988.json | 6574 | 2024-03-03 11:30:10 |
| - | 3263988_4928259_XanderHuskypup_plant_tf_01.jpg | 634170 | 2024-03-03 11:30:10 |
| - | 3264044.json | 6368 | 2024-03-03 11:31:28 |
| - | 3264044_4928347_XanderHuskypup_plant_tf_02.jpg | 670864 | 2024-03-03 11:31:29 |
| - | 3264054.json | 5914 | 2024-03-03 11:31:44 |
| - | 3264054_4928366_XanderHuskypup_plant_tf_03.jpg | 328949 | 2024-03-03 11:31:44 |
| - | 3264063.json | 5695 | 2024-03-03 11:32:00 |
| - | 3264063_4928380_XanderHuskypup_12.jpg | 388822 | 2024-03-03 11:32:00 |
| - | 3269957.json | 5807 | 2024-03-10 11:36:50 |
| - | 3269957_4938679_XanderHuskypup_9e8677efa595cb1cd8093f2291f90ac3306ee261_s2_n3_y1.jpg | 318517 | 2024-03-10 11:36:50 |
| - | 3279808.json | 6666 | 2024-03-24 11:02:19 |
| - | 3279808_4955672_XanderHuskypup_93e114d3e75957945925047f3c6d494941aa40d5_s2_n3_y1.jpg | 680099 | 2024-03-24 11:02:19 |
| - | 3284404.json | 6143 | 2024-03-27 11:47:09 |
| - | 3284404_4964494_XanderHuskypup_852910bd2a2c995a6fd385c23b309d1ab2c5561d_s2_n3_y1.jpg | 244743 | 2024-03-27 11:47:09 |
| - | 3284555.json | 7094 | 2024-03-27 11:50:39 |
| - | 3284555_4964699_XanderHuskypup_f5c88de3782c0f3b74235703a479428475dcd55a_s2_n3_y2.jpg | 350006 | 2024-03-27 11:50:39 |